User: anonymous   Login
Location: Unspecified
(0.0000°N, 0.0000°E)
Time: 04:53:33
(UTC+00:00)
Language:

UME 1 - Orbit

View from above orbital plane
View from above orbital plane
View from above satellite
View from above satellite

Ground track
Ground track

The orbit data is extracted from the following two-line orbital elements,

1  8709U 76019A   18343.91486844 -.00000041 +00000-0 +12815-4 0  9997
2  8709 069.6743 097.9652 0013047 316.2218 182.7980 13.71409594140527
Epoch (UTC): 09 December 2018 21:57:24
Eccentricity: 0.0013047
inclination: 69.6743°
perigee height: 985 km
apogee height: 1004 km
right ascension of ascending node: 97.9652°
argument of perigee: 316.2218°
revolutions per day: 13.71409594
mean anomaly at epoch: 182.7980°
orbit number at epoch: 14052

The dashed part of the orbit path shows where the satellite is in the earth's shadow,  

DLR